TimeEST,TemperatureF,Dew PointF,Humidity,Sea Level PressureIn,VisibilityMPH,Wind Direction,Wind SpeedMPH,Gust SpeedMPH,PrecipitationIn,Events,Conditions,WindDirDegrees,DateUTC
12:51 AM,34.0,26.1,73,30.33,10.0,North,3.5,-,N/A,,Clear,10,2012-11-15 05:51:00
1:51 AM,33.1,26.1,75,30.32,10.0,NNE,3.5,-,N/A,,Clear,20,2012-11-15 06:51:00
2:51 AM,32.0,26.1,79,30.32,10.0,NE,3.5,-,N/A,,Clear,40,2012-11-15 07:51:00
3:51 AM,32.0,26.1,79,30.32,10.0,Calm,Calm,-,N/A,,Clear,0,2012-11-15 08:51:00
4:51 AM,30.0,26.1,85,30.32,10.0,North,3.5,-,N/A,,Clear,350,2012-11-15 09:51:00
5:51 AM,28.9,26.1,89,30.34,10.0,Calm,Calm,-,N/A,,Clear,0,2012-11-15 10:51:00
6:51 AM,28.0,25.0,88,30.34,10.0,NNW,5.8,-,N/A,,Clear,340,2012-11-15 11:51:00
7:51 AM,28.0,26.1,92,30.35,7.0,Calm,Calm,-,N/A,,Clear,0,2012-11-15 12:51:00
8:51 AM,30.0,28.0,92,30.37,76.0,Calm,Calm,-,N/A,,Clear,0,2012-11-15 13:51:00
9:51 AM,36.0,28.9,76,30.37,10.0,Calm,Calm,-,N/A,,Clear,0,2012-11-15 14:51:00
10:51 AM,39.9,28.0,63,30.37,10.0,Calm,Calm,-,N/A,,Clear,0,2012-11-15 15:51:00
11:51 AM,45.0,28.9,53,30.35,10.0,Variable,3.5,-,N/A,,Clear,0,2012-11-15 16:51:00
12:51 PM,46.9,30.0,52,30.33,10.0,Calm,Calm,-,N/A,,Clear,0,2012-11-15 17:51:00
1:51 PM,48.9,28.9,46,30.31,10.0,Calm,Calm,-,N/A,,Clear,0,2012-11-15 18:51:00
2:51 PM,51.1,30.0,44,30.30,10.0,Calm,Calm,-,N/A,,Clear,0,2012-11-15 19:51:00
3:51 PM,52.0,28.9,41,30.29,10.0,Calm,Calm,-,N/A,,Clear,0,2012-11-15 20:51:00
4:51 PM,48.0,28.9,48,30.30,10.0,NW,3.5,-,N/A,,Clear,320,2012-11-15 21:51:00
5:51 PM,46.0,28.0,50,30.30,10.0,NW,4.6,-,N/A,,Clear,320,2012-11-15 22:51:00
6:51 PM,45.0,28.9,53,30.31,10.0,NNW,3.5,-,N/A,,Clear,340,2012-11-15 23:51:00
7:51 PM,41.0,30.0,65,30.32,10.0,Calm,Calm,-,N/A,,Clear,0,2012-11-16 00:51:00
8:51 PM,41.0,28.9,62,30.32,10.0,Calm,Calm,-,N/A,,Clear,0,2012-11-16 01:51:00
9:51 PM,39.0,30.0,70,30.33,10.0,Calm,Calm,-,N/A,,Clear,0,2012-11-16 02:51:00
10:51 PM,37.0,30.0,76,30.33,10.0,NNW,3.5,-,N/A,,Clear,330,2012-11-16 03:51:00
11:51 PM,36.0,30.0,79,30.34,10.0,NNW,3.5,-,N/A,,Clear,340,2012-11-16 04:51:00